Theta_e
309 310 308 306 307 307 308 312 315 314 317 320 320 314 311 318 325 317 310 314 315 309 308 309 309 310 310 310 310 311 311 312 312 314 317 317 317 316 315 316 317 317 318 314 308 307 308 308 309 312 316 318 319 319 319 319 320 320 320 320 320 320 320 320 320 320 319 319 318 318 318 318 318 318 318 318 318 318 318 318 317 315 316 316 316 315 316
309 308 307 306 308 309 310 312 311 310 313 315 314 312 310 313 315 311 309 311 310 306 306 306 307 308 308 307 308 309 309 310 310 312 312 312 311 311 310 310 310 310 311 308 304 305 306 306 307 308 312 317 319 319 319 319 318 319 319 319 319 319 319 319 319 319 319 319 318 318 318 318 318 318 317 316 316 317 317 317 316 315 316 317 316 316 316
310 308 307 306 309 310 311 312 311 310 311 312 313 312 310 311 309 307 308 311 309 306 306 306 305 305 305 305 307 308 309 309 309 309 309 308 308 307 307 307 306 306 306 305 303 304 304 304 306 306 307 311 314 317 319 318 318 319 319 319 319 318 318 318 318 318 318 318 318 318 319 318 318 317 316 316 317 317 318 317 316 317 317 317 316 316 316
310 308 307 307 310 310 311 313 312 312 313 312 310 309 309 311 309 308 311 312 307 306 307 306 303 303 303 303 304 305 306 307 308 308 308 308 307 307 307 306 306 306 306 305 304 304 304 304 305 305 305 306 309 312 315 316 318 319 319 319 319 318 318 317 318 318 318 318 318 318 319 318 318 316 316 317 318 318 318 318 318 318 317 317 317 316 316
311 309 309 312 315 312 312 313 309 307 309 308 306 305 304 306 309 310 312 308 304 305 306 305 303 302 302 302 302 302 302 303 305 307 309 309 308 308 308 307 307 306 306 305 304 304 304 304 305 305 305 305 306 307 309 311 313 315 317 318 317 317 318 318 318 318 318 319 319 319 319 318 318 317 317 318 318 318 318 318 317 317 316 316 316 316 316
312 311 313 315 316 313 311 309 307 307 306 305 305 305 303 304 306 307 307 305 304 305 305 303 303 302 302 301 301 301 301 301 301 303 306 308 307 306 305 306 306 305 304 304 304 304 305 305 305 305 305 305 305 306 306 307 308 310 311 313 314 316 316 315 316 316 317 318 318 317 317 317 317 317 317 317 317 316 316 316 315 315 315 316 316 316 316
314 312 316 315 312 311 307 304 304 306 304 302 302 302 302 303 304 303 304 303 303 304 304 303 302 301 301 300 299 299 300 300 300 300 301 304 306 305 304 304 304 304 305 305 305 304 304 305 305 305 305 305 305 305 305 306 307 307 307 308 309 312 313 313 313 313 314 315 315 316 316 316 316 316 316 316 315 314 314 314 314 314 315 315 315 315 315
310 310 315 313 308 306 305 304 304 304 302 303 305 304 302 303 304 303 303 302 302 303 304 304 304 302 300 299 299 298 299 300 300 300 299 300 302 303 302 301 300 301 303 304 306 305 304 303 304 304 305 305 305 305 305 305 306 306 306 306 306 308 311 311 311 311 313 314 314 314 314 313 313 312 312 312 311 311 312 313 313 313 313 312 312 312 313
312 312 309 307 306 306 305 306 305 303 303 304 306 306 302 301 302 302 301 301 302 302 302 303 304 304 304 302 300 298 298 299 299 298 298 298 298 298 297 298 298 298 299 300 302 304 303 302 302 303 304 304 305 305 305 304 305 305 305 306 306 306 307 308 308 310 313 312 310 310 309 308 308 308 308 308 308 308 309 310 311 311 311 311 312 311 312
312 313 308 305 308 309 308 308 307 306 305 304 304 305 302 300 301 301 299 301 301 301 302 301 302 305 307 305 301 298 298 298 298 297 296 296 296 296 296 297 297 298 298 298 298 300 301 301 301 301 302 303 304 304 304 304 305 305 305 305 305 305 305 306 308 309 310 309 308 307 307 306 306 307 307 307 307 306 307 307 308 308 309 309 310 311 311
309 311 310 309 309 309 307 308 307 306 305 303 304 307 304 300 300 300 299 300 299 299 300 300 300 305 308 305 301 298 298 297 296 296 296 295 296 296 296 297 297 297 297 298 298 298 299 299 299 300 300 302 302 302 303 303 304 305 305 304 304 305 305 305 307 308 308 308 307 307 306 305 304 305 306 306 306 305 306 306 307 307 307 308 308 309 311
309 310 309 307 307 306 304 305 306 303 300 300 305 310 307 299 297 298 298 299 299 298 299 299 300 302 304 302 300 298 297 296 295 296 296 295 296 296 296 297 297 297 297 297 298 298 298 298 298 299 299 299 300 300 301 302 303 304 305 305 304 304 304 305 305 306 306 307 307 307 307 306 305 304 305 306 306 305 305 306 306 306 306 306 306 308 311
311 312 309 305 305 305 303 303 303 300 299 302 307 309 305 299 297 297 298 299 298 298 300 300 299 299 299 298 297 296 295 295 296 296 296 296 296 297 297 297 297 298 298 298 298 297 297 298 298 298 298 298 299 299 299 300 301 302 303 304 305 304 305 304 304 305 305 306 306 306 306 306 306 305 305 306 306 306 306 306 305 304 304 304 305 306 309
308 308 306 305 305 304 301 302 302 300 302 306 305 303 301 299 298 298 298 299 298 299 299 299 298 299 299 298 297 296 296 296 296 296 296 296 296 297 297 298 297 297 298 298 298 298 297 298 298 298 298 298 298 299 299 299 300 300 301 303 303 304 305 304 304 304 304 304 305 305 306 306 306 306 306 306 307 307 307 306 306 305 304 304 304 305 306
305 306 305 306 305 302 299 301 302 301 302 302 299 298 298 299 299 298 299 299 299 300 300 298 299 301 300 299 299 298 298 298 296 295 295 295 296 296 297 297 297 297 297 297 298 298 298 298 298 298 298 298 298 298 298 299 300 300 300 301 302 303 304 304 304 304 304 304 304 304 304 304 304 305 305 305 306 307 307 307 306 306 306 305 305 305 305
304 305 303 302 301 299 298 301 301 299 299 299 298 299 298 298 299 299 299 299 298 300 299 298 299 300 300 300 300 299 300 298 295 294 295 295 296 296 296 297 297 297 297 297 297 298 298 298 298 298 298 298 298 298 298 298 299 300 300 300 300 301 303 303 304 304 304 304 304 304 304 303 303 303 303 303 304 304 305 306 307 306 306 306 306 306 306
301 301 300 298 298 298 298 299 299 298 298 299 300 300 299 298 299 299 299 298 298 299 299 298 299 299 299 299 299 298 298 297 294 293 294 295 295 296 295 296 297 297 297 297 297 297 298 298 298 298 298 298 298 298 298 298 298 299 299 299 300 301 302 303 303 304 304 304 304 304 304 304 304 304 303 303 303 303 303 304 305 306 306 306 306 306 306
298 299 298 297 298 298 298 298 299 299 299 299 300 300 299 299 298 299 299 299 298 298 298 298 298 299 298 298 297 297 296 295 293 293 294 294 294 295 294 295 295 295 296 296 296 296 297 297 297 298 298 298 298 298 298 298 298 298 298 298 299 300 301 302 302 303 303 304 304 304 304 304 304 303 303 303 303 303 303 303 304 306 306 306 306 305 305
300 299 297 297 298 298 297 298 298 298 298 299 300 301 300 299 299 299 299 298 298 298 298 298 298 298 297 296 295 295 295 294 292 292 292 293 292 293 293 293 293 294 294 294 295 295 296 296 296 297 297 297 297 298 298 298 299 298 298 298 298 299 299 300 301 301 302 302 303 303 303 304 303 303 303 303 303 303 303 303 304 305 306 306 305 304 304
301 299 298 298 298 298 298 299 298 298 299 299 299 299 299 299 298 297 295 296 297 297 297 297 297 297 295 294 294 293 293 291 291 291 291 291 291 291 292 292 292 292 292 292 293 293 294 294 295 295 295 296 296 296 297 297 298 298 298 298 298 298 299 299 299 300 301 301 302 303 303 303 303 303 303 303 303 303 303 303 303 304 304 305 305 304 304
299 297 297 298 297 296 297 298 298 299 299 298 298 299 299 299 298 297 296 294 294 295 295 294 295 295 295 293 292 292 292 290 289 290 290 290 291 291 291 291 291 291 291 291 292 292 292 292 292 293 293 294 294 295 295 296 297 298 298 298 298 299 299 298 298 299 300 301 301 302 303 303 302 302 303 303 303 303 302 302 303 303 303 304 304 305 306
301 300 299 298 297 298 298 297 297 298 298 299 299 299 299 300 299 299 298 295 293 292 292 292 292 294 294 291 290 291 290 289 289 290 290 290 290 290 290 290 291 290 291 291 291 291 291 291 291 292 292 292 293 294 295 296 297 297 298 298 299 299 299 299 299 299 299 300 301 301 301 302 302 302 302 303 303 303 303 303 303 303 303 304 305 306 307
302 302 301 300 299 299 298 297 298 298 298 299 300 299 299 299 297 296 297 297 294 293 292 291 292 292 292 291 290 289 289 290 290 290 290 290 290 290 290 290 290 290 290 290 290 290 290 291 291 291 292 293 293 294 294 295 296 297 297 298 299 299 299 299 300 300 299 300 300 301 301 301 301 301 302 302 303 303 303 303 303 304 305 307 307 307 307
299 300 302 301 299 297 297 297 298 297 296 298 300 299 297 297 294 292 293 294 294 294 293 292 292 291 291 290 290 290 290 290 290 290 290 290 290 290 290 290 290 290 290 290 290 290 290 290 291 291 291 292 292 292 292 293 294 295 296 297 298 299 299 299 299 300 300 300 300 301 300 300 300 301 301 301 302 302 303 304 305 306 307 308 307 307 307
299 298 301 301 299 297 297 296 296 295 294 296 298 297 296 295 293 292 292 292 292 293 292 291 291 291 291 291 291 290 290 291 291 291 291 290 290 290 290 290 290 290 290 290 291 290 290 291 291 290 291 291 291 291 292 292 293 294 294 295 296 298 298 299 299 299 300 300 301 301 300 300 300 300 301 301 301 302 302 304 305 307 307 307 307 306 306
300 299 299 299 298 298 297 296 296 296 294 294 295 294 294 294 294 293 293 292 292 292 292 291 291 292 291 291 291 291 291 291 291 291 290 290 290 290 290 290 290 290 290 291 291 291 291 291 291 291 291 291 291 292 292 292 293 293 293 294 295 295 296 297 298 298 299 299 300 301 300 300 300 300 300 301 302 302 301 302 304 305 305 306 305 304 304
300 300 299 297 297 299 298 297 297 295 293 293 294 293 293 294 293 293 293 293 292 291 291 291 291 291 291 291 290 291 291 291 291 291 290 290 290 290 290 290 290 290 290 290 290 291 291 291 291 292 292 292 292 292 292 292 292 292 293 293 294 294 295 295 296 297 297 298 299 300 300 300 300 300 300 301 302 302 302 302 303 302 302 302 302 301 302
299 299 298 299 300 300 298 295 295 294 293 293 294 293 293 293 293 293 293 293 291 290 290 290 290 290 290 290 290 290 291 291 290 290 289 289 289 289 289 289 290 290 290 290 291 291 291 291 292 292 292 292 293 293 293 293 292 292 293 293 293 293 294 294 295 295 296 297 298 299 300 300 301 301 301 301 302 302 301 302 302 301 299 299 298 297 297
298 298 299 299 297 296 295 294 294 295 294 293 293 293 293 294 294 295 294 293 291 290 289 289 290 289 289 290 290 290 290 290 289 289 289 289 289 289 289 289 290 290 290 291 291 291 291 291 291 292 292 293 293 293 293 293 293 293 293 293 293 293 293 293 294 294 295 296 297 299 300 300 300 301 301 301 301 301 301 300 300 300 298 296 296 294 293
298 298 299 298 295 293 295 296 296 296 295 293 293 294 293 292 294 296 294 291 290 290 290 290 289 289 289 290 290 290 290 289 289 289 289 289 289 289 289 289 290 290 290 291 291 291 291 291 291 292 292 293 293 294 294 294 294 294 294 294 294 294 294 294 294 294 294 295 296 297 299 300 299 299 299 299 299 300 300 299 299 298 296 294 294 293 291
298 297 298 299 297 296 298 297 296 297 295 293 293 294 294 293 295 296 295 291 289 289 290 290 290 289 289 289 290 290 289 289 289 288 288 288 288 289 289 290 290 289 290 290 291 291 291 291 292 292 293 293 293 293 294 294 294 295 295 295 295 295 295 295 295 294 294 295 296 297 298 298 298 297 297 297 297 297 297 297 296 295 294 292 292 291 291
298 296 296 297 297 297 297 297 296 296 296 295 295 295 294 294 295 295 294 292 290 289 290 290 290 289 289 289 290 289 289 288 288 288 288 288 289 290 290 290 290 290 290 291 291 291 291 291 292 292 293 293 293 293 293 293 294 294 295 295 296 296 296 296 295 295 295 295 295 296 297 298 297 296 296 296 296 296 296 294 293 292 291 291 290 290 290
299 298 297 297 297 296 296 296 296 296 296 295 294 293 292 292 292 291 291 291 290 290 290 290 290 290 289 289 289 288 288 288 288 288 288 288 289 290 290 290 290 290 291 291 291 291 291 291 292 292 293 293 293 293 293 293 293 294 294 294 295 295 296 296 296 295 295 295 295 296 297 298 297 294 293 294 295 295 294 293 291 291 290 290 290 291 291
298 298 297 297 296 295 296 297 297 297 297 295 292 290 291 291 291 291 291 292 291 290 291 291 290 290 289 289 289 288 288 288 288 287 288 288 289 289 289 289 290 291 292 292 292 292 292 292 292 293 293 293 293 293 293 294 294 295 295 295 294 295 295 295 295 295 295 295 296 296 297 297 296 294 293 293 293 293 291 291 290 290 290 291 291 292 292
295 295 294 294 293 293 293 294 295 296 296 296 293 291 291 292 291 291 291 292 291 291 291 290 290 289 289 289 288 287 287 287 287 287 288 288 288 288 288 288 289 291 292 293 292 292 292 293 293 293 293 293 293 293 294 294 296 296 296 296 295 295 294 294 294 295 295 295 295 295 295 295 295 294 293 293 292 291 290 290 290 291 292 292 292 292 292
295 294 292 293 293 293 293 293 293 293 293 293 293 291 291 292 292 291 291 292 291 291 290 289 289 289 289 288 287 287 287 287 287 287 288 288 288 287 287 287 287 288 290 291 292 292 292 293 294 294 294 293 293 293 294 294 295 296 296 295 295 295 294 294 294 295 295 295 294 294 293 293 292 292 291 291 290 290 290 290 291 292 293 293 292 292 292
294 294 294 294 294 295 294 294 294 293 293 293 292 291 291 291 290 290 290 291 290 290 289 288 288 289 289 288 287 286 287 287 287 287 287 288 287 287 287 287 287 287 287 289 290 291 292 293 294 295 295 294 293 293 293 294 294 295 295 295 294 294 294 294 294 294 294 293 293 293 292 292 291 290 290 290 290 290 291 292 292 292 292 292 292 292 292
294 295 295 295 295 295 294 294 294 294 294 293 292 291 291 290 289 289 290 289 290 290 289 288 288 289 289 288 287 286 286 287 287 287 287 287 287 287 286 286 286 286 286 288 289 290 291 293 295 295 295 295 294 294 294 294 294 294 294 294 294 294 293 293 293 293 292 292 292 292 292 291 291 291 291 291 292 293 293 293 292 292 292 291 292 292 292
294 294 295 295 294 294 294 295 295 295 294 293 291 291 290 290 289 289 289 289 289 290 289 288 288 288 288 288 287 286 286 286 287 287 287 287 286 287 287 286 286 287 288 289 290 291 292 294 295 295 295 295 295 294 294 294 294 294 293 293 293 293 292 292 292 292 292 292 292 292 292 292 292 293 293 293 293 293 293 292 292 292 292 292 293 293 293
292 294 294 294 294 294 294 294 294 295 294 293 292 291 290 290 289 289 289 289 289 289 289 288 288 288 288 288 287 286 286 286 285 286 286 286 286 286 286 287 288 289 290 291 291 291 292 294 295 295 296 296 296 295 295 294 294 294 293 293 293 293 293 292 292 292 292 292 293 293 293 293 293 293 293 293 292 292 292 292 293 294 294 294 293 293 293
292 293 294 293 293 294 294 294 294 294 294 294 293 292 291 290 289 289 289 289 289 289 288 288 287 287 287 287 287 286 286 285 285 285 285 285 285 285 285 286 287 289 290 291 292 292 292 293 294 294 295 296 296 296 296 296 295 295 294 294 294 293 293 293 293 293 293 293 293 293 293 293 293 293 293 292 292 292 293 293 293 293 293 293 292 292 292
292 293 293 293 293 294 294 294 294 294 294 294 294 292 291 290 289 289 288 288 288 288 288 288 287 287 287 287 287 286 286 286 285 285 285 285 285 284 284 285 287 288 289 291 292 292 292 292 292 293 294 295 296 296 297 297 296 296 295 295 294 294 294 294 293 293 293 293 293 293 293 293 293 292 292 292 291 291 292 292 291 291 291 291 291 291 291
292 293 292 292 293 294 294 294 294 293 294 294 294 292 290 290 289 288 288 288 288 288 288 288 287 286 286 286 286 286 286 286 286 285 285 285 285 285 285 286 287 288 289 290 291 291 291 292 292 292 293 294 294 295 296 296 296 296 296 295 295 294 294 293 293 293 293 292 292 292 292 292 292 291 291 290 290 290 290 290 290 290 290 290 290 290 290
293 293 292 292 293 294 293 293 293 293 293 294 294 292 290 290 289 288 288 288 287 288 288 288 287 286 285 285 286 286 286 286 286 285 285 285 285 285 286 287 287 287 288 289 290 290 290 291 291 292 293 293 294 294 294 294 294 294 294 294 294 293 293 293 292 292 292 291 291 291 291 291 290 290 290 290 289 289 289 289 289 289 289 289 289 289 289
293 293 293 293 294 293 293 293 294 294 294 294 294 292 291 290 289 289 288 287 287 287 287 287 287 286 285 285 285 286 286 286 285 285 285 285 285 285 286 286 286 287 287 288 289 289 289 290 291 292 292 293 293 293 293 293 292 292 292 292 292 292 292 291 291 291 291 291 291 290 290 290 290 290 289 289 289 289 288 288 288 288 288 288 288 288 288
293 294 294 294 293 294 294 294 295 295 295 294 293 291 290 290 289 289 288 287 287 287 287 287 287 287 286 285 285 285 286 286 285 285 285 285 284 285 286 286 286 286 287 287 288 288 289 289 290 291 291 292 292 292 292 292 292 292 291 291 291 291 290 290 290 290 290 290 290 290 290 289 289 289 288 288 288 288 287 287 287 287 287 287 287 286 286
294 293 293 294 294 294 295 295 295 294 294 293 291 291 291 290 289 289 288 288 287 287 286 286 287 287 286 285 285 285 285 286 285 285 284 284 284 285 285 285 285 286 286 286 287 287 288 289 289 290 290 291 291 291 291 291 291 291 290 290 290 290 290 289 289 289 289 289 289 288 288 288 288 287 287 287 287 287 287 286 286 286 286 285 285 285 285
294 294 294 295 295 295 295 294 293 293 293 293 293 293 292 290 290 289 289 288 287 287 286 286 286 286 286 285 285 284 285 285 285 285 285 285 284 285 285 285 285 285 285 286 286 286 287 288 288 289 289 289 290 290 290 290 289 289 289 289 289 289 288 288 288 288 288 288 287 287 287 286 286 286 286 286 286 286 286 286 285 285 285 284 284 284 284
294 294 295 295 295 295 294 293 293 293 294 294 295 295 293 291 289 289 289 288 287 287 287 286 286 285 285 285 284 284 285 285 285 285 285 285 285 285 285 285 285 284 284 285 285 286 286 287 287 288 288 288 289 288 288 288 288 288 288 288 288 288 287 287 287 287 287 286 286 286 286 286 286 286 286 286 286 286 285 285 285 284 284 284 284 283 283
294 294 294 294 294 294 294 294 294 294 295 295 296 296 293 290 289 289 289 288 287 287 287 287 286 285 285 285 285 285 284 285 285 285 285 285 285 284 284 284 284 284 284 284 284 285 285 286 287 287 287 287 287 288 288 288 287 287 287 287 287 287 287 286 286 286 286 286 286 286 286 286 286 286 286 286 286 286 286 286 285 285 285 284 284 284 283
293 293 294 295 295 295 295 295 295 296 296 296 296 296 293 290 289 290 290 289 288 287 287 287 286 286 286 285 285 285 285 285 285 285 285 285 285 285 284 284 284 284 284 283 284 284 285 285 286 286 286 286 286 287 287 287 287 287 287 287 287 286 286 286 286 286 285 285 285 285 285 285 286 286 286 286 286 286 286 286 286 285 285 285 285 285 284
294 294 295 295 295 295 296 296 296 296 296 296 296 295 294 291 290 289 289 289 289 288 288 287 287 287 286 286 286 285 285 285 285 285 285 285 285 284 283 283 283 283 284 283 283 284 284 285 285 285 285 285 285 286 286 286 286 286 286 286 286 285 285 285 285 285 285 285 284 284 284 284 284 285 285 284 284 284 284 284 284 285 285 285 285 285 285
Wind_Speed
4 3 4 7 9 6 4 4 3 4 4 6 6 2 0 4 6 4 2 6 5 2 6 7 7 7 6 7 7 7 7 7 7 7 8 8 8 8 8 8 7 7 7 6 8 11 11 9 7 5 6 7 8 11 13 14 14 15 17 18 19 19 19 19 19 20 21 21 18 15 12 11 12 12 11 7 8 12 15 16 16 15 16 18 20 22 19
5 5 3 8 10 7 5 6 5 5 7 8 6 3 4 8 9 6 7 10 7 2 4 6 7 6 5 5 8 10 11 10 9 10 10 10 10 10 9 9 8 9 8 9 13 16 16 14 11 7 5 5 7 8 11 12 13 16 19 20 21 21 20 20 19 19 20 20 16 11 12 14 14 14 14 13 16 19 20 20 19 20 21 19 20 23 22
3 5 4 8 11 10 8 7 6 5 7 8 7 4 5 9 8 5 8 11 7 4 4 5 6 5 6 10 12 12 10 9 10 12 11 10 11 10 10 10 10 10 11 12 16 18 19 20 17 12 8 3 3 4 5 6 11 16 17 17 18 19 19 19 19 19 19 19 17 17 20 22 20 17 16 17 20 22 21 20 21 23 24 24 27 29 27
2 2 4 7 10 11 10 7 6 5 6 6 4 3 3 4 7 6 8 8 2 4 4 5 5 7 11 13 11 10 9 9 11 11 10 10 10 9 9 9 10 10 10 11 14 17 21 23 23 21 17 11 5 3 2 2 6 11 11 12 14 16 19 20 21 21 20 19 19 20 22 22 22 20 17 18 22 22 20 19 20 22 25 27 29 30 28
3 2 2 3 5 7 4 3 1 3 5 7 6 6 7 4 5 6 4 4 2 3 4 4 7 10 11 10 9 8 8 9 10 10 9 9 8 8 8 8 8 8 8 10 14 17 20 23 25 25 25 21 15 7 3 3 3 5 6 9 11 14 16 18 19 20 20 20 21 22 21 21 21 20 18 20 23 22 21 21 22 23 25 27 26 26 25
3 4 2 3 2 1 3 5 2 3 5 10 11 7 6 6 4 4 4 3 2 3 4 5 6 7 7 7 6 6 6 7 9 9 9 8 9 9 9 8 7 8 10 13 16 18 20 23 25 25 26 26 23 14 5 3 4 4 4 5 8 10 12 14 16 18 19 19 19 18 17 18 18 18 19 20 21 19 19 20 21 22 22 22 21 19 17
3 2 5 3 2 3 0 3 3 4 6 13 16 10 6 6 6 6 6 5 4 4 3 3 4 5 5 5 6 7 7 6 7 8 9 9 9 9 9 9 10 12 14 16 17 19 20 22 24 25 24 25 26 22 12 4 3 3 3 4 5 7 10 11 13 15 15 14 14 15 16 17 17 18 18 18 17 15 14 14 14 14 13 12 11 11 10
2 1 3 2 3 1 2 4 3 3 2 7 12 9 6 6 4 4 5 5 3 4 4 3 1 1 2 4 6 8 8 7 7 7 7 7 7 7 8 9 12 16 18 17 16 17 19 20 22 23 23 22 24 26 21 13 9 7 3 1 4 6 9 10 10 11 12 12 14 16 17 17 16 16 15 15 13 12 11 11 11 10 9 8 7 6 6
3 3 2 2 2 1 1 3 2 2 2 1 4 4 1 3 4 2 4 4 4 4 4 5 4 1 3 5 6 7 8 8 7 6 6 7 8 9 11 13 15 19 21 21 20 19 19 21 21 21 20 18 20 24 23 20 18 15 9 4 1 3 7 9 11 12 13 15 16 17 16 16 15 14 13 12 11 10 9 9 9 8 7 6 5 4 4
3 5 4 2 1 3 5 5 4 3 3 3 2 5 2 2 4 1 4 5 4 3 4 6 4 3 4 4 5 6 8 7 7 8 9 11 12 13 15 17 19 20 21 21 21 20 19 21 21 21 19 17 17 19 19 18 19 19 16 10 5 1 2 7 12 15 16 17 17 16 14 13 13 12 11 10 8 7 7 6 6 5 4 3 2 3 4
2 5 4 3 3 4 5 5 6 6 4 3 3 5 1 2 4 1 4 6 4 3 3 4 4 4 2 2 4 5 7 7 7 7 8 12 15 15 15 16 16 17 18 18 18 18 18 19 20 20 19 19 18 18 17 14 13 14 15 12 10 9 6 1 9 16 18 17 17 15 12 11 10 10 9 7 6 4 4 4 3 3 2 1 1 2 4
3 5 4 2 2 3 4 5 6 6 3 4 6 2 4 3 2 1 4 6 4 4 4 3 4 4 2 3 4 4 6 7 8 7 8 10 13 15 16 16 16 16 16 17 17 16 15 16 18 18 18 20 20 20 20 17 12 9 9 10 12 12 8 4 2 10 14 15 16 15 12 10 10 9 7 6 5 4 4 3 2 2 1 0 1 1 3
2 4 3 1 1 3 3 4 5 5 1 5 4 4 6 4 3 2 4 6 3 3 5 4 2 2 3 3 4 4 5 6 7 8 10 11 13 15 16 17 18 18 17 17 15 14 14 15 16 17 17 19 20 20 20 20 18 15 12 9 9 11 9 3 2 3 6 9 12 14 12 11 12 11 9 8 7 7 6 6 4 2 1 0 1 2 3
3 3 4 2 1 2 3 3 4 3 1 4 4 3 2 4 4 3 3 4 3 3 3 2 3 3 4 4 4 5 5 5 6 8 11 12 14 16 17 17 18 19 18 18 17 16 15 14 15 16 16 18 19 19 19 20 20 20 18 14 11 9 8 6 4 2 3 5 8 9 9 9 10 11 10 10 10 9 9 7 6 4 2 1 2 3 4
2 3 3 2 2 2 5 4 3 4 2 3 3 2 2 2 3 3 2 3 3 3 1 2 4 4 5 5 5 5 6 6 8 11 13 14 15 17 17 18 18 18 18 18 19 18 17 17 16 16 15 17 19 19 18 18 18 19 19 18 17 12 9 10 7 4 4 6 8 8 8 7 7 7 8 9 9 9 8 8 6 5 4 4 5 5 5
1 2 2 1 2 4 5 2 3 3 2 3 4 3 2 2 2 3 3 3 4 4 4 3 4 4 5 5 5 5 6 6 8 12 15 17 18 19 20 20 20 19 18 18 19 20 20 20 20 17 15 15 17 19 19 18 17 17 17 18 19 16 14 15 14 11 9 9 8 7 6 6 6 6 6 6 7 7 7 8 8 8 8 8 8 8 8
2 3 2 1 2 3 4 4 4 3 3 3 3 4 3 2 3 3 3 4 4 4 5 4 4 4 4 5 5 5 6 6 7 10 13 15 17 19 21 22 23 22 21 21 21 22 21 21 20 19 17 15 16 18 20 20 20 19 18 18 18 17 16 17 19 19 18 17 16 16 14 12 11 11 10 9 8 7 7 7 8 9 10 10 10 10 9
4 4 3 1 1 1 3 4 3 2 2 1 2 4 3 3 4 3 3 4 5 5 5 4 3 4 4 5 5 5 5 5 8 11 13 14 15 17 20 22 23 23 23 23 21 21 22 21 19 19 18 17 18 19 19 20 21 21 21 20 19 17 16 15 16 19 22 23 24 26 25 21 18 16 14 13 11 9 8 7 8 10 11 11 11 10 9
3 3 3 3 2 2 2 1 2 2 0 1 2 3 3 4 4 3 4 4 4 4 4 3 3 4 3 3 4 5 4 5 8 11 14 16 17 18 19 20 22 23 23 22 21 21 22 21 19 18 20 21 21 22 22 22 22 22 21 21 21 20 19 16 14 15 18 21 22 23 24 23 21 19 16 14 13 11 9 8 9 10 10 11 10 10 9
1 2 3 3 1 1 1 0 0 1 1 1 1 1 1 2 2 2 3 2 1 1 2 1 1 2 3 3 3 4 4 5 9 12 14 17 19 21 21 21 22 22 22 23 23 23 24 23 21 21 22 24 25 26 25 24 23 23 23 22 23 23 22 20 18 16 15 17 20 21 21 22 21 20 17 16 15 14 12 11 10 11 11 11 11 11 11
2 1 0 1 2 3 5 4 3 4 3 2 1 1 1 1 1 2 2 2 2 2 2 3 3 3 4 4 4 5 5 6 9 13 16 18 20 22 23 23 23 22 22 23 24 26 27 27 25 25 26 27 27 28 28 25 23 24 25 24 23 23 23 22 21 19 16 15 16 19 20 21 20 18 17 17 17 15 14 13 12 12 12 12 12 13 12
0 3 3 4 3 2 5 4 4 5 4 4 4 2 2 2 3 3 1 3 4 5 5 4 4 2 4 5 6 5 6 8 12 15 17 19 20 22 23 24 24 24 24 24 25 27 29 28 27 27 29 30 28 25 25 23 23 24 26 24 23 23 22 21 22 21 19 17 15 15 17 20 19 17 16 16 17 16 16 15 13 12 11 10 10 11 12
4 5 5 5 4 2 3 3 4 5 4 4 4 5 4 4 4 4 3 2 3 3 2 1 3 4 5 7 7 6 8 12 15 17 18 19 20 22 23 24 24 25 25 25 26 27 28 27 26 27 28 28 26 24 23 21 21 22 23 23 22 22 22 21 21 20 19 18 16 15 14 16 18 18 16 15 15 15 16 15 13 13 13 11 9 9 10
2 4 5 4 4 3 3 3 4 5 4 5 4 4 3 3 4 4 5 5 3 3 4 5 6 6 7 8 9 8 11 15 17 18 20 21 21 22 22 22 22 24 24 24 25 26 26 26 26 27 27 28 28 27 27 25 23 22 21 21 22 22 22 22 22 19 17 16 16 16 15 15 17 18 17 15 13 11 12 14 14 13 14 13 11 10 9
3 3 4 4 5 4 3 2 3 3 1 2 3 2 1 3 6 8 7 5 4 3 4 6 8 8 8 10 11 12 13 17 18 20 21 21 21 21 21 21 21 23 23 24 25 26 27 27 27 27 29 29 29 28 28 28 26 25 23 22 22 22 22 22 22 21 19 17 17 18 17 17 18 20 19 17 15 12 10 10 12 13 13 13 11 10 10
4 4 3 3 2 1 1 1 1 2 2 2 3 2 1 2 5 6 4 1 2 5 7 8 10 11 11 12 13 14 15 18 20 20 19 19 20 20 20 21 22 23 24 25 25 25 26 27 27 27 28 29 28 28 28 28 28 28 27 25 24 24 24 23 22 22 21 19 19 19 18 18 20 23 23 21 19 16 13 11 10 11 11 11 10 9 10
3 4 5 3 2 3 2 1 2 3 0 4 5 3 4 5 4 3 2 5 7 9 10 10 11 13 14 14 14 15 16 18 18 18 17 18 18 19 20 22 22 23 24 25 25 25 25 26 26 26 28 29 29 29 29 29 29 29 30 28 27 26 26 25 25 24 22 21 20 20 20 20 21 23 23 23 22 21 18 16 15 14 13 12 12 12 12
3 3 4 4 3 4 3 3 3 2 2 4 4 3 5 5 5 4 3 5 8 9 11 13 13 12 13 14 15 15 16 16 16 16 16 17 18 20 20 20 20 21 23 23 23 22 22 22 23 24 26 28 29 28 27 27 28 29 30 30 29 28 28 28 28 27 26 24 22 21 22 23 22 22 24 25 24 22 21 20 19 18 16 15 15 14 13
3 3 2 3 4 4 4 3 4 4 3 2 2 3 3 3 3 3 2 4 6 7 9 12 14 13 13 14 14 14 14 15 15 16 17 18 19 20 19 18 19 20 20 19 19 20 20 20 21 23 24 25 24 24 24 24 25 27 28 28 28 28 28 28 28 29 29 27 25 23 22 23 23 24 25 25 24 22 21 21 21 20 19 19 19 18 19
4 2 1 2 3 5 5 4 4 2 1 2 2 2 2 1 1 2 4 5 6 6 7 10 13 14 14 14 14 14 15 16 16 17 18 18 18 17 16 17 18 19 18 19 20 20 21 21 22 22 24 24 23 22 21 22 23 25 25 26 27 27 27 27 27 27 28 28 27 25 23 24 25 25 25 24 24 23 22 22 22 22 23 23 24 25 26
1 2 3 3 3 4 5 4 4 3 1 2 2 2 2 1 2 4 5 5 5 7 8 10 11 12 13 15 15 15 15 16 16 16 16 16 15 16 16 17 17 18 19 20 21 21 22 22 23 24 25 25 23 20 19 19 21 22 23 25 26 26 27 27 26 26 27 27 27 26 25 23 24 25 25 25 24 24 24 24 24 25 26 26 27 29 30
3 4 3 2 2 3 4 3 3 3 2 0 0 2 3 3 4 5 5 5 7 8 9 10 10 12 14 15 15 14 15 15 15 14 14 15 16 16 17 18 18 18 18 19 20 21 21 22 24 26 27 25 21 18 16 16 18 21 23 24 24 25 27 27 26 26 26 26 26 26 26 24 24 24 26 27 27 26 26 26 26 27 28 29 29 30 31
4 2 0 1 2 3 3 4 4 3 3 3 3 5 6 6 7 8 8 9 10 10 10 10 10 13 14 14 13 14 14 14 13 12 14 17 17 17 18 19 19 18 17 18 20 22 23 24 27 29 27 24 20 17 13 12 15 19 23 25 25 24 25 26 26 26 25 25 25 25 25 25 24 23 24 25 27 27 27 28 29 29 27 28 30 30 30
5 5 5 5 6 5 5 5 4 4 4 4 5 7 8 9 9 10 11 11 11 11 10 10 10 11 11 11 12 13 13 11 10 12 15 17 18 18 19 20 19 18 17 19 23 26 27 28 29 29 27 24 20 17 12 7 7 10 14 18 21 21 21 23 24 24 23 23 23 24 25 25 24 23 24 24 26 27 27 27 29 29 28 27 29 29 28
6 4 4 5 7 8 8 6 5 5 4 4 5 7 9 10 10 9 10 10 10 10 10 8 8 8 8 10 12 12 12 11 11 13 15 16 17 18 19 20 21 21 21 22 25 28 28 28 28 28 27 26 23 20 16 11 8 6 3 4 10 15 17 19 21 21 21 21 21 22 24 24 24 24 25 26 27 28 26 25 26 29 30 29 28 27 26
5 4 3 5 7 7 7 7 8 7 7 6 7 9 11 11 9 8 8 8 8 7 7 6 6 6 7 9 10 10 10 12 13 14 14 15 16 17 18 19 21 22 22 23 26 28 27 26 26 27 27 27 26 24 20 18 18 17 16 15 16 17 18 18 18 19 18 19 19 20 21 21 22 23 24 25 25 26 27 26 26 28 29 29 28 26 24
7 7 7 7 7 6 7 8 10 9 8 8 9 9 9 7 5 4 4 4 4 4 4 5 5 4 5 6 9 10 10 11 12 13 13 13 14 16 18 19 21 21 20 21 25 27 26 24 24 25 26 28 28 26 24 23 22 22 22 23 23 23 22 21 20 20 19 19 20 21 21 21 22 22 23 24 24 26 27 27 26 25 26 26 26 25 23
7 9 9 9 9 8 8 8 8 8 8 8 9 8 6 4 3 2 2 3 3 3 3 3 3 2 2 4 8 11 12 11 11 12 13 13 13 14 16 18 20 19 18 19 23 24 23 22 22 23 25 27 28 27 26 26 25 25 25 25 25 25 25 24 23 23 22 23 23 24 24 25 25 24 24 25 26 26 26 26 24 24 24 24 23 22 20
6 8 10 10 10 10 9 8 8 9 10 9 9 8 6 5 4 3 2 2 3 3 3 2 2 1 1 2 6 10 11 11 12 12 13 14 13 12 13 16 18 17 16 17 19 20 19 19 21 22 23 24 25 26 26 27 28 27 27 27 26 26 25 25 25 25 24 24 25 25 25 26 25 25 24 24 24 24 23 23 23 22 22 21 19 18 16
7 9 11 11 11 10 10 9 10 11 11 10 10 8 6 6 5 3 2 2 2 2 2 2 1 1 1 1 4 7 9 10 11 12 12 13 14 13 14 17 19 18 17 17 18 18 17 17 18 20 21 21 22 23 24 26 27 28 28 28 27 26 26 25 25 25 24 24 24 24 24 23 23 23 22 21 21 21 20 20 20 19 18 17 17 16 15
10 11 11 12 12 11 10 10 11 12 12 12 12 9 7 7 6 4 3 2 2 2 3 2 0 1 2 2 2 3 6 8 10 12 13 14 14 13 13 15 18 18 17 16 16 16 16 16 17 17 18 18 18 19 20 22 25 26 27 27 27 26 26 25 24 24 23 23 23 22 22 22 22 21 20 20 19 19 18 18 17 16 16 16 16 16 17
11 12 12 12 12 12 12 11 12 12 12 13 11 8 7 7 6 4 3 2 2 3 4 3 2 2 3 4 3 2 3 6 8 10 12 13 13 12 11 12 15 16 16 15 15 15 16 16 16 16 15 15 15 15 16 18 20 22 23 23 24 23 23 23 23 23 22 22 22 21 21 21 21 20 20 20 19 19 18 18 18 18 18 18 18 18 18
14 14 13 13 13 14 14 13 12 12 12 12 10 7 8 8 6 5 5 3 3 4 5 5 4 3 3 4 3 2 2 4 5 6 8 9 11 11 11 11 13 14 13 13 14 15 15 16 15 14 13 13 13 14 14 16 17 18 20 20 20 21 21 21 21 21 22 22 22 22 22 21 21 21 21 21 21 20 20 20 20 20 19 19 18 18 17
16 15 15 15 16 16 15 14 12 12 12 11 10 8 10 9 7 7 6 4 3 4 6 6 6 4 3 3 3 3 3 3 4 4 5 7 9 11 11 11 11 12 12 13 14 15 15 15 14 13 12 12 12 13 15 17 18 18 19 19 20 20 21 20 20 21 21 21 21 21 21 21 21 21 21 21 21 21 20 20 20 19 19 18 17 16 16
17 17 19 19 18 17 16 15 13 13 12 11 10 9 10 11 9 7 6 4 3 4 5 7 7 5 4 4 4 4 4 4 4 4 5 5 7 8 9 10 10 11 11 12 13 15 15 14 13 11 11 11 12 13 15 17 18 19 20 20 21 21 21 21 21 21 21 21 21 21 21 21 21 21 21 21 21 20 20 20 19 18 17 16 15 14 14
18 19 20 20 18 19 19 18 17 15 13 10 8 8 11 12 11 8 7 5 3 3 4 6 7 6 4 4 4 5 4 3 4 5 5 5 5 5 7 8 9 9 10 12 13 14 14 13 13 12 12 12 13 14 16 17 18 19 20 21 22 22 22 22 22 22 22 21 21 21 21 20 20 20 19 19 19 18 18 17 16 15 14 13 13 12 11
18 18 18 19 20 21 21 19 16 13 10 8 8 10 13 14 13 10 8 6 5 3 4 5 6 7 6 4 2 3 4 4 4 5 5 5 5 4 5 6 7 8 10 11 13 13 13 12 12 13 13 13 14 16 17 18 19 19 20 21 21 21 21 21 21 21 21 20 20 20 19 19 18 18 17 16 15 14 13 12 11 10 9 8 8 7 7
18 18 19 20 22 21 19 16 13 11 11 11 12 13 14 15 16 13 10 9 8 6 5 5 5 7 7 5 3 3 5 5 4 3 4 4 4 4 4 6 7 7 8 10 12 12 12 11 12 12 13 14 15 16 17 18 19 19 20 20 20 19 19 19 18 18 18 18 18 18 18 17 17 16 16 15 14 13 12 11 10 9 7 6 6 5 4
19 19 19 19 19 18 16 14 13 13 14 15 15 14 14 15 16 15 13 13 11 9 8 6 5 6 7 6 5 5 5 4 3 2 3 3 3 3 3 4 5 7 8 9 11 11 11 11 12 12 13 14 15 16 17 18 18 19 19 19 19 19 19 18 17 17 17 17 17 18 18 18 18 18 17 16 15 14 13 13 12 11 10 9 8 7 5
18 17 17 16 17 17 17 16 15 16 17 16 15 15 14 14 16 17 17 16 15 13 11 10 8 7 7 7 6 6 5 5 5 5 4 2 0 2 2 2 3 5 6 8 10 10 11 11 11 12 13 14 14 15 16 17 17 18 18 18 18 18 18 17 17 17 17 17 17 17 17 17 16 16 16 15 14 13 12 11 10 10 9 8 8 7 6
17 17 17 18 19 19 20 19 19 19 18 17 16 15 14 16 19 20 20 19 18 17 15 13 11 10 10 9 8 7 7 7 7 6 5 4 3 1 1 2 2 3 5 6 8 9 10 10 11 11 11 12 13 14 14 15 16 17 16 16 16 16 16 17 17 18 18 18 18 17 16 15 14 14 14 13 12 12 11 10 9 9 9 8 8 8 7
21 20 20 20 19 19 20 20 20 19 18 17 17 16 16 18 20 20 20 20 21 20 19 17 16 15 14 13 12 10 9 9 8 6 6 5 4 3 2 2 3 4 4 5 7 8 9 10 11 11 11 11 12 12 13 13 14 14 14 14 14 15 15 15 15 16 16 16 16 16 15 14 13 13 12 12 11 11 11 10 9 9 9 8 8 8 8
Wind_Direction
23 54 99 99 96 92 84 74 54 23 31 68 92 106 74 110 123 154 153 103 94 331 322 341 342 343 359 11 16 28 30 27 31 36 38 38 34 31 28 19 16 26 26 15 20 24 23 25 43 78 112 130 137 139 140 142 149 153 153 155 154 154 160 165 164 160 149 142 139 141 146 150 153 158 160 178 222 216 209 221 230 238 251 252 240 234 237
30 21 84 112 104 97 73 49 46 65 73 74 75 64 67 88 100 120 110 89 71 354 324 342 341 333 346 25 36 38 36 31 35 44 42 38 36 33 31 27 26 28 25 20 21 21 19 14 13 30 72 113 136 144 144 144 151 155 153 153 152 151 155 157 157 158 155 156 164 184 214 220 204 191 195 214 228 218 207 209 218 227 234 235 231 233 238
17 356 44 96 97 97 83 51 28 58 76 63 45 36 64 82 90 100 96 85 60 354 346 352 341 343 26 44 42 39 36 34 42 48 43 38 39 35 31 31 31 32 31 28 25 22 17 14 11 12 17 41 129 153 161 157 161 162 162 164 165 166 171 171 170 172 173 178 188 199 208 209 199 193 201 208 209 208 206 207 213 220 226 226 226 230 234
218 335 84 104 94 86 73 42 13 26 62 71 56 30 37 94 126 117 88 87 65 314 338 355 2 33 48 45 40 39 36 33 43 49 44 40 39 34 32 32 30 31 29 25 25 25 22 20 19 16 12 10 27 81 117 152 170 177 186 195 195 192 190 186 184 183 183 185 189 191 195 198 197 201 208 208 206 209 212 211 212 217 220 221 222 226 232
215 290 109 126 91 77 53 338 2 73 99 108 91 50 29 49 118 121 110 133 198 307 352 26 34 43 50 47 39 40 38 35 41 46 42 38 35 30 28 27 28 29 27 24 24 26 26 25 21 19 19 16 12 18 65 95 135 176 193 202 202 196 189 187 189 190 190 193 194 194 198 204 208 211 210 207 206 209 211 209 208 212 216 219 223 229 236
210 282 4 56 72 130 256 276 236 156 129 110 95 64 28 30 58 97 116 112 62 13 25 55 57 50 50 47 43 43 46 44 42 41 39 35 30 25 22 21 20 18 21 24 23 24 26 24 20 21 21 18 13 10 19 81 97 115 141 175 198 199 190 190 198 201 203 204 201 196 196 199 201 201 201 201 202 207 213 213 213 218 223 225 227 230 234
169 311 36 58 229 211 245 4 68 117 115 102 95 77 36 34 50 72 76 58 35 24 25 54 84 77 60 48 41 37 37 45 49 44 36 32 29 24 18 14 10 7 11 17 20 22 22 17 14 17 16 13 13 13 10 15 46 63 100 132 170 198 198 196 200 204 205 203 195 186 182 183 187 189 193 197 198 203 208 206 206 208 206 205 207 210 216
143 78 68 145 206 162 41 2 41 120 115 85 84 65 19 8 24 60 75 53 19 18 9 330 266 114 45 38 37 29 21 25 39 43 36 28 25 23 17 12 9 8 9 9 9 14 18 15 12 12 10 3 360 4 9 14 15 8 360 103 144 175 189 194 201 200 191 180 176 174 171 172 174 175 178 180 178 178 177 174 173 171 166 170 180 188 197
141 115 89 102 94 109 224 281 276 208 255 309 102 100 19 344 356 38 93 72 29 18 1 322 299 318 27 21 14 11 10 10 15 22 27 26 20 17 17 16 17 18 17 16 11 7 9 13 12 10 8 358 346 350 359 6 11 12 8 2 330 201 196 197 202 200 189 176 167 164 165 167 167 166 165 165 162 159 157 157 157 161 166 173 186 200 209
115 101 94 94 125 218 223 239 268 280 276 258 150 118 114 342 341 356 122 101 63 36 6 339 338 39 45 5 328 340 354 358 1 6 11 16 15 15 16 15 15 16 17 18 18 14 9 9 7 1 357 350 341 342 350 357 360 358 359 12 34 38 215 208 202 191 182 178 174 171 172 174 173 172 170 169 168 166 164 159 151 152 162 175 196 231 242
117 117 136 167 190 225 235 242 274 294 269 224 97 84 124 287 310 289 123 105 87 75 42 4 26 68 59 289 280 317 340 341 346 354 357 2 5 4 6 8 7 7 7 6 9 13 13 8 4 357 350 344 338 335 337 344 350 345 341 352 12 23 31 176 205 196 187 184 186 186 187 186 183 179 175 177 183 183 176 170 160 151 156 177 214 248 249
154 133 144 173 189 227 250 248 273 296 264 139 98 103 237 240 280 272 110 102 94 89 81 48 54 85 151 246 279 315 329 324 327 338 342 348 349 347 349 353 353 352 354 354 356 1 2 358 356 354 351 346 341 336 332 327 324 327 325 325 334 340 351 25 172 200 201 200 198 195 193 192 188 183 186 199 214 220 212 203 199 188 177 212 330 286 249
89 108 112 77 249 256 272 267 286 312 318 131 137 215 221 182 187 200 115 111 120 95 87 89 101 171 215 244 284 304 315 312 315 327 332 333 335 337 339 342 343 342 342 343 343 343 343 343 343 344 344 343 341 343 341 329 317 313 313 307 305 306 301 297 124 165 195 202 204 202 200 197 192 190 196 207 214 219 220 218 215 204 180 182 325 306 272
46 97 108 100 243 286 322 306 309 343 106 170 201 220 172 142 175 188 121 125 151 118 92 132 192 238 273 288 291 297 308 310 311 319 326 329 331 334 336 338 340 338 333 332 330 327 328 331 332 333 333 331 330 334 339 336 325 315 310 304 295 286 264 232 208 187 176 178 184 191 194 197 199 204 212 218 217 214 212 212 213 206 205 252 276 286 288
45 70 79 105 150 312 327 323 344 16 89 172 174 108 96 139 169 169 156 174 175 150 153 240 249 270 293 295 293 300 306 311 317 322 327 329 328 329 331 333 333 330 323 322 321 319 319 320 322 325 323 318 318 318 322 328 328 320 312 307 299 283 242 222 227 235 214 190 177 176 179 181 186 192 199 208 214 213 211 211 213 216 225 236 240 242 249
56 91 99 143 202 290 320 24 84 56 79 140 141 121 121 182 183 166 171 204 212 186 176 218 259 277 288 293 301 309 309 312 318 320 324 326 326 327 326 326 327 324 316 312 313 311 311 312 314 316 313 306 304 303 302 308 317 321 320 315 307 293 263 246 246 245 232 209 194 198 211 213 210 203 195 195 201 207 212 213 212 214 216 219 224 226 227
62 99 122 157 236 296 351 54 94 89 68 88 132 137 139 188 206 187 162 188 218 205 183 202 238 249 262 279 291 295 295 300 307 312 317 320 322 323 323 324 325 322 316 312 310 307 307 308 308 308 308 299 290 289 293 296 300 306 312 315 314 307 288 263 248 239 233 227 230 245 256 254 243 232 223 219 214 210 214 217 218 219 217 215 219 220 216
85 71 85 115 92 33 33 41 50 73 80 101 145 144 160 198 203 191 175 185 206 202 186 196 225 238 252 273 286 291 296 302 309 314 315 316 318 318 318 319 320 319 316 313 309 306 306 307 304 303 304 299 290 287 291 294 294 295 299 302 305 308 302 282 257 241 235 234 239 247 251 251 246 235 224 220 219 215 212 212 218 224 221 215 212 210 206
119 104 158 181 160 142 131 68 31 33 131 201 174 163 191 200 191 194 195 192 193 193 187 198 233 252 267 300 307 310 315 313 314 315 313 312 313 313 311 312 313 313 312 309 307 305 303 304 305 304 302 298 294 292 292 293 293 294 293 292 293 295 297 297 287 266 248 239 237 238 237 234 231 224 217 216 215 211 206 202 207 216 221 219 216 212 201
114 145 178 196 208 246 265 263 181 204 208 233 309 355 161 169 182 213 218 202 198 251 296 329 323 316 337 352 324 312 311 303 304 306 306 307 309 308 308 308 308 307 304 302 301 300 298 298 301 301 297 295 294 294 294 293 290 290 288 286 284 283 285 288 292 291 275 251 234 227 225 221 217 213 211 213 214 216 221 226 228 230 230 230 234 230 212
29 346 196 80 39 324 304 295 274 259 234 203 219 18 67 140 217 268 307 342 15 24 18 49 57 13 334 320 307 303 303 300 301 302 303 304 305 304 304 304 303 300 297 295 295 295 294 295 296 294 291 290 290 291 293 293 289 285 282 279 276 275 276 276 278 284 289 275 249 230 223 220 217 214 213 214 219 226 232 237 241 243 240 240 244 238 224
71 246 209 146 138 238 258 252 263 266 234 173 164 180 196 212 226 236 285 7 39 67 84 80 58 352 303 298 298 295 292 295 300 302 303 302 302 301 302 302 300 295 292 290 291 290 290 293 294 291 289 288 287 288 290 292 290 283 276 270 268 268 269 271 271 271 276 279 274 257 237 223 217 214 214 216 220 223 225 227 231 234 235 238 241 232 224
211 227 207 167 152 198 225 222 249 254 215 168 172 199 211 221 224 206 173 110 53 54 73 360 314 283 276 291 297 292 294 299 300 300 299 298 297 299 300 300 298 295 293 291 289 288 289 291 290 289 288 288 287 288 290 291 291 284 273 266 263 264 265 268 270 270 268 268 271 272 257 232 216 209 208 209 214 218 221 223 225 226 225 223 221 221 225
198 227 209 179 158 181 209 222 240 238 204 176 182 198 210 213 195 167 156 155 163 203 238 274 291 283 281 299 309 305 304 305 304 302 301 298 296 296 298 297 294 292 292 291 289 289 290 290 288 286 285 284 285 287 287 286 286 283 277 271 266 264 263 264 265 268 267 263 261 265 262 242 221 210 203 199 201 211 218 218 216 217 216 213 211 215 224
153 200 198 165 157 189 224 239 239 247 230 165 168 173 173 166 159 155 159 174 195 226 273 301 312 311 307 313 316 311 305 304 303 302 302 300 299 299 299 297 294 292 291 290 289 287 287 286 285 284 282 281 282 282 282 281 280 278 276 272 268 264 262 261 262 262 262 259 255 254 253 243 228 218 210 202 194 187 184 192 197 199 201 202 206 213 216
149 160 140 101 113 220 278 53 282 296 338 91 133 136 63 102 150 156 149 111 360 350 340 325 319 321 320 316 311 306 302 301 302 302 301 300 300 301 301 299 297 295 293 291 288 285 284 282 281 280 279 279 279 278 276 276 275 272 269 266 264 263 261 261 262 262 260 258 253 250 248 242 230 219 212 206 197 183 169 162 167 175 182 186 190 197 203
167 156 127 96 349 304 296 193 224 259 301 113 119 93 44 54 85 100 45 7 358 355 348 336 326 325 325 322 315 307 303 302 303 305 306 304 303 303 303 301 299 298 297 294 291 288 286 283 281 278 277 279 279 277 274 272 268 265 264 261 258 258 257 256 257 258 258 257 254 249 243 236 227 218 211 204 197 191 186 180 174 169 168 172 179 187 197
184 184 144 149 210 237 230 204 192 172 119 116 109 61 39 50 62 57 12 342 342 344 344 342 337 330 324 322 317 310 308 311 312 313 313 311 308 307 307 306 305 305 303 301 299 297 293 289 285 282 281 282 282 279 275 270 263 260 258 256 254 252 250 248 248 249 250 250 249 246 239 230 221 215 211 206 198 192 188 183 176 169 165 167 171 175 181
209 226 175 166 185 174 143 124 128 114 89 98 97 50 43 60 56 27 325 308 321 327 329 335 338 334 327 322 318 315 317 320 318 316 315 314 313 313 315 318 318 316 313 310 310 309 307 303 298 293 293 296 295 289 281 272 261 255 252 250 248 247 245 243 241 240 241 241 239 240 240 234 223 214 208 203 196 189 181 175 172 169 167 167 165 162 162
258 263 155 128 125 128 128 135 147 145 88 82 83 36 34 93 141 290 286 289 297 298 303 318 328 332 330 326 323 322 323 322 319 318 318 318 319 323 329 334 333 328 321 318 320 321 320 318 314 309 310 312 309 300 290 279 266 257 250 244 242 242 242 241 238 235 234 233 231 232 236 234 225 215 205 196 189 184 177 173 171 170 168 166 165 161 158
306 18 87 103 107 128 148 161 172 189 191 87 65 360 4 78 233 262 273 282 284 286 295 306 316 323 328 329 329 329 329 327 325 322 322 327 335 342 347 347 339 326 318 319 325 329 330 329 326 324 325 324 318 307 295 282 270 261 250 242 238 237 237 236 234 231 229 226 224 223 225 223 217 208 198 188 181 177 173 170 170 169 166 164 163 161 160
89 59 64 73 94 127 152 162 169 206 245 328 349 269 258 243 248 255 260 271 281 288 295 300 307 319 328 333 335 336 334 332 328 327 333 345 355 359 356 348 339 329 325 328 333 336 336 335 334 335 336 333 326 316 303 283 268 258 248 240 235 233 230 227 225 224 223 221 217 214 213 211 207 200 191 183 178 175 172 169 166 164 163 162 161 161 161
122 113 156 191 139 143 174 191 194 215 237 240 243 254 261 262 258 254 256 266 281 293 294 295 308 325 335 340 341 341 339 336 334 338 348 359 6 6 358 351 346 342 340 342 347 350 349 346 344 345 346 344 339 334 322 292 266 255 248 241 235 229 223 219 216 214 213 212 210 207 205 205 203 194 184 178 175 173 170 167 164 162 161 160 160 160 161
172 197 209 196 178 175 187 199 209 226 244 260 265 268 273 276 271 266 263 265 276 290 296 300 316 332 343 349 349 346 344 341 337 340 350 2 10 8 360 356 356 357 358 359 0 1 1 358 355 355 357 358 360 2 359 335 275 257 251 243 232 220 210 205 203 201 199 199 201 200 198 197 195 189 182 177 173 169 166 164 160 156 154 155 156 159 163
204 217 224 207 192 185 182 187 202 216 229 258 272 274 282 289 290 283 274 269 277 295 308 317 329 342 357 2 356 350 348 346 342 343 352 6 15 12 6 5 5 5 6 7 7 6 6 6 6 7 8 11 18 26 35 51 74 84 98 183 190 185 182 182 183 184 186 188 188 187 186 185 184 181 179 175 170 165 163 159 155 151 151 154 159 163 166
207 207 214 208 199 193 193 204 216 223 228 244 261 273 285 295 300 299 289 281 286 305 325 335 342 358 14 8 354 349 353 356 355 354 359 11 18 16 13 11 9 5 3 2 4 7 9 10 15 20 21 22 29 39 51 68 80 86 91 103 119 131 139 148 154 159 165 169 168 168 170 170 168 167 167 164 160 157 154 152 151 151 154 159 162 164 166
209 203 201 204 204 205 214 223 230 238 247 259 270 277 282 288 295 300 297 290 293 314 340 349 352 9 24 11 358 1 11 14 9 4 5 13 19 20 19 18 13 8 1 354 356 2 8 14 22 31 33 33 37 45 56 69 80 87 92 97 104 110 116 121 126 131 138 145 148 149 149 147 146 148 151 151 150 148 147 148 151 154 158 162 164 166 167
209 206 208 211 208 208 217 227 238 253 265 275 282 283 276 262 254 268 287 296 297 305 324 343 356 21 39 18 9 12 19 23 19 14 13 17 21 22 23 21 16 8 358 351 354 2 11 21 31 38 40 42 46 52 59 68 76 82 87 91 97 103 108 111 115 120 124 130 133 134 134 134 133 135 139 142 144 144 146 150 155 158 160 162 164 166 168
200 207 215 215 211 212 223 237 255 269 274 275 280 279 261 230 222 239 274 293 294 289 295 316 355 50 78 34 20 18 20 24 26 24 22 23 25 27 29 28 24 17 8 4 8 14 21 30 39 43 44 47 53 60 65 70 75 79 82 86 90 94 99 104 108 111 115 119 121 123 125 127 129 131 134 138 142 145 149 154 158 159 159 160 163 167 173
202 210 214 213 212 219 230 242 260 272 276 276 280 278 254 223 215 222 248 274 276 255 250 271 356 65 118 91 35 25 22 25 30 34 34 33 32 32 30 28 27 27 25 21 22 26 30 37 45 49 50 52 57 63 70 76 79 81 84 87 89 90 93 97 101 105 109 114 117 119 121 124 127 130 134 138 142 146 150 153 155 156 157 159 164 170 174
212 215 215 213 217 224 232 243 259 273 282 289 294 286 252 221 215 218 225 242 240 209 205 215 223 96 138 148 105 47 31 30 34 39 41 38 34 30 24 20 23 28 30 28 27 31 37 44 49 52 55 59 61 64 69 76 81 84 87 90 93 94 96 98 100 104 109 114 117 120 123 126 127 129 132 135 138 140 143 146 148 151 155 158 160 162 163
218 219 219 221 224 228 234 243 256 268 280 293 297 281 236 215 212 212 212 217 213 195 183 174 164 158 160 161 153 97 41 34 36 40 42 41 36 28 20 19 24 29 32 31 31 34 39 44 49 54 59 65 69 70 73 77 82 85 88 91 93 95 97 98 100 104 110 114 116 119 123 125 125 125 126 128 129 132 135 138 140 143 147 150 152 155 157
221 220 221 225 228 231 236 243 251 261 275 287 289 261 225 211 204 200 200 203 205 193 180 171 163 154 151 157 154 119 52 32 30 34 43 49 47 40 33 30 30 32 33 36 39 41 41 44 50 56 61 68 75 79 81 83 85 87 90 92 94 95 96 97 99 103 107 109 111 114 118 121 122 122 123 123 124 127 131 134 135 138 142 145 148 151 154
222 220 221 227 231 233 236 240 244 251 265 282 285 257 225 210 202 199 200 202 208 201 190 184 177 159 139 136 129 101 62 33 21 21 30 42 46 46 44 40 36 35 38 43 47 48 47 48 51 56 62 70 77 82 85 87 88 90 93 95 96 98 98 99 100 102 104 105 107 110 113 116 118 119 121 121 122 125 127 129 130 134 137 139 142 144 147
223 223 224 228 231 232 233 236 239 245 257 277 284 259 226 211 204 201 200 201 210 212 204 199 191 176 153 136 122 104 78 51 40 35 30 27 30 34 38 39 37 39 45 50 53 54 53 53 53 56 62 70 77 82 87 89 90 92 94 96 97 98 99 99 100 101 103 105 107 110 112 114 116 118 119 120 121 122 123 124 126 129 131 134 136 138 142
226 227 226 226 229 232 235 237 240 246 254 270 279 257 229 213 205 204 204 203 212 226 223 215 207 196 179 157 140 131 115 82 60 54 53 52 50 46 42 39 38 43 50 55 57 57 57 57 59 61 66 72 78 84 88 91 93 94 95 96 96 97 99 100 101 102 103 105 107 109 111 113 114 114 115 117 118 118 120 121 122 123 126 128 132 135 139
227 227 226 225 228 233 237 238 237 239 241 245 254 252 236 217 207 207 208 205 204 213 218 216 213 207 199 189 175 170 163 139 102 79 74 76 78 68 53 45 43 48 55 58 59 58 59 61 65 68 72 77 83 87 90 92 94 95 95 95 96 96 97 99 101 103 104 106 108 108 109 110 110 111 113 113 114 115 119 121 122 123 128 134 139 143 150
224 226 227 228 229 232 234 231 223 219 221 228 243 255 245 222 209 207 206 203 202 204 204 206 211 210 206 208 217 199 176 155 123 95 86 83 77 68 60 54 52 54 61 65 64 63 64 67 71 74 77 81 85 89 92 93 94 95 95 94 93 93 93 95 99 101 103 104 105 104 103 103 103 104 105 105 104 103 104 104 104 107 111 117 125 135 149
225 228 231 231 227 226 225 219 213 217 224 231 243 257 251 226 209 205 206 204 203 203 201 200 200 200 198 197 196 191 185 178 163 146 133 106 73 60 62 64 61 60 63 67 69 69 71 74 76 78 80 83 86 90 93 95 96 97 96 95 94 94 94 96 99 101 103 103 103 102 101 100 100 99 98 98 98 97 96 95 95 95 96 98 102 105 106
225 225 226 225 222 219 217 215 216 223 228 231 240 251 245 220 205 206 209 207 205 206 206 205 203 199 193 185 178 178 183 181 169 163 171 186 146 51 60 77 83 74 68 68 71 76 81 84 83 81 80 82 86 90 93 96 97 99 99 100 100 100 99 100 101 102 104 105 105 104 103 103 103 102 100 98 98 99 100 101 101 99 97 96 97 97 97
220 218 220 223 225 225 224 224 226 230 232 232 237 241 235 220 214 215 214 209 206 206 205 203 204 206 203 194 186 181 177 173 170 174 192 211 215 190 91 101 120 108 85 74 76 81 87 91 91 88 86 85 86 90 94 97 98 98 100 103 105 105 104 102 102 102 104 103 101 100 100 102 105 107 105 102 99 98 99 101 102 100 97 94 93 92 92
221 222 224 226 228 230 231 231 232 233 234 233 233 234 230 223 219 217 215 212 212 212 210 208 209 213 212 206 199 192 184 178 180 185 189 189 190 187 154 132 137 134 115 95 88 90 93 95 95 95 93 92 92 94 98 101 100 98 98 102 105 107 107 105 105 105 105 102 97 93 92 94 99 104 106 106 103 99 96 96 99 101 102 102 99 94 90